Regional Weather Roundup
Issued by NWS Little Rock, AR

Home | Current Version | Previous Version | Graphics & Text | Print | Product List | Glossary On
Versions: 1 2 3 4 5 6 7 8 9 10 11 12 13 14 15 16 17 18 19 20 21 22 23 24 25 26 27 28 29 30 31 32 33 34 35 36 37 38 39 40 41 42 43 44 45 46 47 48 49 50
000
ASUS44 KLZK 031205
RWRLZK

WEATHER ROUNDUP FOR ARKANSAS
NATIONAL WEATHER SERVICE LITTLE ROCK AR
700 AM CDT SUN MAY 03 2015

NOTE: "FAIR" INDICATES FEW OR NO CLOUDS BELOW 12,000 FEET WITH NO
SIGNIFICANT WEATHER AND/OR OBSTRUCTIONS TO VISIBILITY.

ARZ001-003-010-029-031300-
NORTHWEST ARKANSAS

CITY           SKY/WX    TMP DP  RH WIND       PRES   REMARKS
FAYETTEVILLE   PTCLDY    54  51  90 CALM      30.01R
6HR MIN TEMP:  50; 6HR MAX TEMP:  55;

FORT SMITH     CLEAR     57  52  83 E6        30.00R
6HR MIN TEMP:  57; 6HR MAX TEMP:  63;

HARRISON       PTCLDY    53  49  86 SE7       30.02R
6HR MIN TEMP:  51; 6HR MAX TEMP:  58;

BENTONVILLE    CLEAR    N/A N/A N/A S3        30.00R
ROGERS         CLEAR     56  50  80 SE7       30.01R
6HR MIN TEMP:  56; 6HR MAX TEMP:  60;

SILOAM SPGS    PTCLDY    59  46  63 S8        30.01R
6HR MIN TEMP:  57; 6HR MAX TEMP:  61;

HIGHFILL       CLEAR     54  49  83 SE5       29.99
6HR MIN TEMP:  54; 6HR MAX TEMP:  59;

SPRINGDALE     CLEAR     57  50  77 SE5       30.02R
$$

ARZ004-005-016-031300-
NORTH CENTRAL ARKANSAS

CITY           SKY/WX    TMP DP  RH WIND       PRES   REMARKS
BATESVILLE     CLEAR     57  45  62 SE3       30.05R
6HR MIN TEMP:  55; 6HR MAX TEMP:  63;

FLIPPIN        CLEAR     54  46  76 CALM      30.01R
6HR MIN TEMP:  52; 6HR MAX TEMP:  63;

MTN HOME       PTCLDY    57  44  62 S6        30.02R
6HR MIN TEMP:  55; 6HR MAX TEMP:  59;

$$

ARZ040-041-031300-
WEST CENTRAL ARKANSAS

CITY           SKY/WX    TMP DP  RH WIND       PRES   REMARKS
MENA           CLEAR     52  52 100 CALM      30.03S
MOUNT IDA      CLEAR     50  48  93 CALM      30.01R FOG
6HR MIN TEMP:  50; 6HR MAX TEMP:  54;

$$

ARZ009-017-025-026-028-031300-
NORTHEAST ARKANSAS

CITY           SKY/WX    TMP DP  RH WIND       PRES   REMARKS
CORNING          N/A     55  50  82 CALM      30.06R
JONESBORO      PTCLDY    49  48  97 CALM      30.06R
6HR MIN TEMP:  47; 6HR MAX TEMP:  51;

NEWPORT        CLEAR     53  50  90 S5        30.07R
6HR MIN TEMP:  52; 6HR MAX TEMP:  60;

WALNUT RIDGE   MOCLDY    54  45  71 S7        30.05R
6HR MIN TEMP:  54; 6HR MAX TEMP:  59;

BLYTHEVILLE    PTCLDY    59  50  72 S8        30.07R
6HR MIN TEMP:  54; 6HR MAX TEMP:  61;

$$

ARZ022-023-033-042-044-031300-
CENTRAL ARKANSAS

CITY           SKY/WX    TMP DP  RH WIND       PRES   REMARKS
LITTLE ROCK    PTCLDY    54  49  83 CALM      30.05R
6HR MIN TEMP:  53; 6HR MAX TEMP:  62;

N LITTLE ROCK    N/A     59  46  61 SW7       30.05
6HR MIN TEMP:  58; 6HR MAX TEMP:  64;

JACKSONVILLE   CLEAR     49  48  96 CALM      30.04R
6HR MIN TEMP:  47; 6HR MAX TEMP:  52;

SEARCY         CLEAR     49  48  97 CALM      30.07R
6HR MIN TEMP:  48; 6HR MAX TEMP:  52;

HOT SPRINGS    CLEAR     54  48  80 CALM      30.04R
6HR MIN TEMP:  53; 6HR MAX TEMP:  61;

RUSSELLVILLE   CLEAR     52  51  97 CALM      30.02S
6HR MIN TEMP:  52; 6HR MAX TEMP:  57;

CLINTON        FAIR      45  45 100 CALM      30.07R FOG
$$

ARZ036-031300-
EAST ARKANSAS

CITY           SKY/WX    TMP DP  RH WIND       PRES   REMARKS
WEST MEMPHIS   CLEAR     53  51  93 SE5       30.06R
6HR MIN TEMP:  50; 6HR MAX TEMP:  58;

$$

ARZ050-053-066-070-073-031300-
SOUTHWEST ARKANSAS

CITY           SKY/WX    TMP DP  RH WIND       PRES   REMARKS
ARKADELPHIA    FAIR      54  54 100 CALM      30.05R
6HR MIN TEMP:  54; 6HR MAX TEMP:  57;

CAMDEN         MOCLDY    54  50  87 CALM      30.04S
TEXARKANA      CLEAR     62  55  77 S6        30.03R
6HR MIN TEMP:  62; 6HR MAX TEMP:  67;

EL DORADO      CLEAR     57  52  83 CALM      30.05R
6HR MIN TEMP:  54; 6HR MAX TEMP:  58;

DE QUEEN       CLEAR     54  53  97 CALM      30.01R FOG
6HR MIN TEMP:  53; 6HR MAX TEMP:  58;

$$

ARZ056-057-069-031300-
SOUTHEAST ARKANSAS

CITY           SKY/WX    TMP DP  RH WIND       PRES   REMARKS
PINE BLUFF     CLEAR     54  52  93 CALM      30.05S
6HR MIN TEMP:  53; 6HR MAX TEMP:  59;

STUTTGART      CLEAR     57  48  72 SE3       30.05S
6HR MIN TEMP:  57; 6HR MAX TEMP:  63;

MONTICELLO     MOCLDY    60  46  59 MISG      30.05S
6HR MIN TEMP:  56; 6HR MAX TEMP:  63;


$$




USA.gov is the U.S. government's official web portal to all federal, state and local government web resources and services.